EW8711 Weather Reports


Display with metric or nautical units.
time (UTC)temp
F
wind
direction
speed
MPH
gust
MPH
rain 1hr
in
rain 24hr
in
rain mn
in
humidity
%
barometer
mb
20210306050101 32 245 0.0 4.0 0.00 0.00 0.00 51 1017.7
20210306044859 32 268 2.0 6.0 0.00 0.00 0.00 50 1017.5
20210306043830 32 277 2.0 6.0 0.00 0.00 0.00 50 1017.4
20210306042859 32 291 1.0 9.0 0.00 0.00 0.00 50 1017.4
20210306041904 32 274 2.0 6.0 0.00 0.00 0.00 50 1017.5
20210306040827 32 274 1.0 8.0 0.00 0.00 0.00 51 1017.4
20210306035839 32 238 0.0 6.0 0.00 0.00 0.00 49 1017.0
20210306034826 33 267 2.0 15.0 0.00 0.00 0.00 48 1017.0
20210306033801 33 68 2.0 6.0 0.00 0.00 0.00 49 1017.1
20210306032944 33 272 2.0 6.0 0.00 0.00 0.00 48 1017.0
20210306031805 33 238 3.0 9.0 0.00 0.00 0.00 48 1017.0
20210306030744 32 339 3.0 8.0 0.00 0.00 0.00 51 1016.7
20210306030039 32 260 1.0 8.0 0.00 0.00 0.00 51 1016.6
20210306024905 32 255 0.0 4.0 0.00 0.00 0.00 52 1016.5
20210306023736 32 251 2.0 3.0 0.00 0.00 0.00 52 1016.4
20210306022802 31 247 1.0 6.0 0.00 0.00 0.00 52 1016.1
20210306021741 31 247 0.0 1.0 0.00 0.00 0.00 53 1016.1
20210306020718 31 247 0.0 1.0 0.00 0.00 0.00 52 1015.9
20210306020057 32 240 1.0 1.0 0.00 0.00 0.00 50 1016.1
20210306014706 33 235 0.0 4.0 0.00 0.00 0.00 49 1015.6
20210306013659 33 228 1.0 3.0 0.00 0.00 0.00 47 1015.5
20210306012914 33 238 1.0 3.0 0.00 0.00 0.00 46 1015.5
20210306011649 34 263 2.0 6.0 0.00 0.00 0.00 45 1015.5
20210306010647 34 261 3.0 6.0 0.00 0.00 0.00 44 1015.5
20210306005855 34 257 2.0 8.0 0.00 0.00 0.00 44 1015.2
20210306004635 35 261 2.0 8.0 0.00 0.00 0.00 42 1015.0
20210306003640 35 275 3.0 6.0 0.00 0.00 0.00 42 1014.9
20210306003125 35 235 0.0 8.0 0.00 0.00 0.00 42 1014.9
20210306001619 35 246 1.0 6.0 0.00 0.00 0.00 41 1015.1
20210306000617 35 242 0.0 8.0 0.00 0.00 0.00 41 1015.1
20210305235923 35 237 1.0 6.0 0.00 0.00 0.00 40 1014.8
20210305234615 35 249 4.0 8.0 0.00 0.00 0.00 38 1014.8
20210305233602 35 67 1.0 8.0 0.00 0.00 0.00 39 1014.7
20210305232857 35 248 4.0 9.0 0.00 0.00 0.00 38 1014.7
20210305231549 35 343 5.0 9.0 0.00 0.00 0.00 38 1014.6
20210305230544 36 236 0.0 9.0 0.00 0.00 0.00 37 1014.6
20210305225907 36 242 5.0 8.0 0.00 0.00 0.00 35 1014.5
20210305224537 36 325 4.0 15.0 0.00 0.00 0.00 34 1014.3
20210305223538 37 265 1.0 10.0 0.00 0.00 0.00 33 1014.3
20210305222836 37 226 1.0 13.0 0.00 0.00 0.00 33 1014.5
20210305221531 37 260 5.0 15.0 0.00 0.00 0.00 32 1014.3
20210305220534 37 262 2.0 12.0 0.00 0.00 0.00 32 1014.5
20210305215749 38 269 3.0 13.0 0.00 0.00 0.00 31 1014.4
20210305214519 38 304 7.0 15.0 0.00 0.00 0.00 30 1014.5
20210305213501 38 280 1.0 13.0 0.00 0.00 0.00 30 1014.1
20210305212905 38 311 4.0 12.0 0.00 0.00 0.00 29 1014.4
20210305211453 38 281 2.0 9.0 0.00 0.00 0.00 30 1014.4
20210305210446 38 270 4.0 13.0 0.00 0.00 0.00 30 1014.6
20210305205728 39 213 3.0 18.0 0.00 0.00 0.00 30 1014.2
20210305204437 39 8 5.0 15.0 0.00 0.00 0.00 30 1014.3
20210305203429 39 252 2.0 12.0 0.00 0.00 0.00 30 1014.3
20210305202755 39 297 4.0 10.0 0.00 0.00 0.00 27 1014.6
20210305201420 39 231 2.0 13.0 0.00 0.00 0.00 28 1014.4
20210305200605 40 189 5.0 12.0 0.00 0.00 0.00 28 1014.4
20210305195938 40 242 1.0 10.0 0.00 0.00 0.00 28 1014.2
20210305194408 39 197 5.0 13.0 0.00 0.00 0.00 27 1014.5
20210305193411 40 258 6.0 15.0 0.00 0.00 0.00 26 1014.4
20210305192840 39 292 3.0 13.0 0.00 0.00 0.00 27 1014.4
20210305191349 39 266 4.0 16.0 0.00 0.00 0.00 28 1014.7
20210305190348 39 260 4.0 15.0 0.00 0.00 0.00 28 1014.9
20210305185814 39 353 5.0 25.0 0.00 0.00 0.00 26 1014.9
20210305184338 38 272 10.0 16.0 0.00 0.00 0.00 27 1015.0
20210305183329 38 121 0.0 13.0 0.00 0.00 0.00 29 1014.9
20210305182627 38 270 3.0 15.0 0.00 0.00 0.00 29 1015.2
20210305181319 38 252 2.0 10.0 0.00 0.00 0.00 29 1015.0
20210305180322 37 254 8.0 12.0 0.00 0.00 0.00 28 1015.3
20210305175851 37 275 4.0 13.0 0.00 0.00 0.00 30 1015.2
20210305174306 37 269 8.0 18.0 0.00 0.00 0.00 29 1015.7
20210305173302 36 273 3.0 16.0 0.00 0.00 0.00 28 1015.9
20210305172655 37 237 2.0 10.0 0.00 0.00 0.00 29 1016.2
20210305171249 37 266 3.0 9.0 0.00 0.00 0.00 28 1016.0
20210305170250 36 307 6.0 15.0 0.00 0.00 0.00 28 1016.2
20210305165829 36 253 4.0 9.0 0.00 0.00 0.00 29 1016.2
20210305164351 36 277 8.0 13.0 0.00 0.00 0.00 28 1016.3
20210305163941 35 238 6.0 12.0 0.00 0.00 0.00 28 1016.5
20210305163101 34 241 7.0 15.0 0.00 0.00 0.00 30 1016.4
20210305161226 34 212 3.0 10.0 0.00 0.00 0.00 31 1016.4
20210305160215 34 288 4.0 10.0 0.00 0.00 0.00 32 1016.5
20210305155426 34 258 6.0 9.0 0.00 0.00 0.00 31 1016.7
20210305154207 33 273 2.0 10.0 0.00 0.00 0.00 31 1016.9
20210305153219 33 16 7.0 12.0 0.00 0.00 0.00 31 1016.6
20210305152832 33 296 3.0 12.0 0.00 0.00 0.00 34 1017.0
20210305151149 32 240 3.0 12.0 0.00 0.00 0.00 34 1016.7
20210305150151 32 266 3.0 10.0 0.00 0.00 0.00 34 1017.2
20210305145718 32 250 2.0 9.0 0.00 0.00 0.00 35 1016.9
20210305144139 31 239 4.0 9.0 0.00 0.00 0.00 36 1017.0
20210305143150 31 261 4.0 10.0 0.00 0.00 0.00 33 1017.2
20210305142349 31 290 4.0 12.0 0.00 0.00 0.00 33 1017.2
20210305141129 30 236 2.0 10.0 0.00 0.00 0.00 35 1017.3
20210305140347 30 33 6.0 10.0 0.00 0.00 0.00 35 1016.8
20210305135722 29 12 4.0 12.0 0.00 0.00 0.00 37 1017.2
20210305134107 28 244 3.0 12.0 0.00 0.00 0.00 40 1017.6
20210305133119 27 238 2.0 8.0 0.00 0.00 0.00 40 1017.3
20210305132543 28 245 1.0 8.0 0.00 0.00 0.00 41 1017.1
20210305131056 27 36 2.0 9.0 0.00 0.00 0.00 43 1017.3
20210305130316 26 287 4.0 10.0 0.00 0.00 0.00 43 1017.2
20210305125433 26 306 3.0 9.0 0.00 0.00 0.00 44 1017.0
20210305124038 26 271 2.0 13.0 0.00 0.00 0.00 45 1017.1
20210305123350 25 298 3.0 9.0 0.00 0.00 0.00 45 1016.9
20210305122634 25 259 1.0 9.0 0.00 0.00 0.00 47 1016.7
20210305121036 25 247 1.0 6.0 0.00 0.00 0.00 48 1016.7
20210305120045 25 251 3.0 8.0 0.00 0.00 0.00 46 1016.4
20210305115456 25 223 0.0 10.0 0.00 0.00 0.00 47 1016.5
20210305114022 25 255 1.0 8.0 0.00 0.00 0.00 48 1016.1
20210305113049 25 317 3.0 9.0 0.00 0.00 0.00 49 1016.0
20210305112139 25 243 1.0 9.0 0.00 0.00 0.00 49 1016.0
20210305110955 25 268 2.0 9.0 0.00 0.00 0.00 48 1016.1
20210305110041 25 250 1.0 8.0 0.00 0.00 0.00 49 1016.2
20210305105317 25 283 1.0 12.0 0.00 0.00 0.00 49 1016.1
20210305103936 25 249 5.0 8.0 0.00 0.00 0.00 49 1015.7
20210305102937 26 236 1.0 6.0 0.00 0.00 0.00 50 1015.7
20210305102056 26 248 0.0 6.0 0.00 0.00 0.00 50 1015.5
20210305100928 26 108 1.0 8.0 0.00 0.00 0.00 48 1015.4
20210305100057 26 225 1.0 9.0 0.00 0.00 0.00 47 1015.3
20210305094953 27 234 1.0 12.0 0.00 0.00 0.00 47 1015.2
20210305093912 27 299 2.0 8.0 0.00 0.00 0.00 48 1015.0
20210305092910 27 249 0.0 12.0 0.00 0.00 0.00 47 1015.0
20210305092110 27 243 0.0 8.0 0.00 0.00 0.00 47 1014.8
20210305090849 27 266 4.0 12.0 0.00 0.00 0.00 48 1014.8
20210305085844 27 294 4.0 8.0 0.00 0.00 0.00 46 1014.8
20210305085049 28 241 1.0 12.0 0.00 0.00 0.00 45 1014.9
20210305083835 27 279 3.0 18.0 0.00 0.00 0.00 44 1014.6
20210305083108 28 277 2.0 9.0 0.00 0.00 0.00 43 1014.5
20210305081940 28 263 1.0 10.0 0.00 0.00 0.00 42 1014.3
20210305080818 28 259 3.0 10.0 0.00 0.00 0.00 41 1014.7
20210305080019 28 284 4.0 9.0 0.00 0.00 0.00 39 1014.5
20210305074934 28 42 6.0 13.0 0.00 0.00 0.00 40 1014.5
20210305073803 28 208 3.0 8.0 0.00 0.00 0.00 40 1014.5
20210305072853 28 236 2.0 10.0 0.00 0.00 0.00 39 1014.6
20210305071821 28 37 1.0 9.0 0.00 0.00 0.00 37 1014.8
20210305070750 28 306 5.0 10.0 0.00 0.00 0.00 36 1014.7
20210305065919 29 253 2.0 6.0 0.00 0.00 0.00 36 1014.5
20210305064756 29 224 5.0 13.0 0.00 0.00 0.00 35 1014.8
20210305063739 29 250 0.0 9.0 0.00 0.00 0.00 45 1014.5
20210305063045 29 238 1.0 9.0 0.00 0.00 0.00 44 1014.5
20210305061728 29 24 3.0 8.0 0.00 0.00 0.00 45 1014.7
20210305060725 30 323 1.0 6.0 0.00 0.00 0.00 47 1014.6
20210305055913 30 220 1.0 6.0 0.00 0.00 0.00 46 1014.7
20210305054714 31 254 0.0 8.0 0.00 0.00 0.00 45 1014.7
20210305053711 31 266 3.0 8.0 0.00 0.00 0.00 48 1014.5
20210305052835 31 259 2.0 6.0 0.00 0.00 0.00 50 1014.5
20210305051654 30 234 1.0 6.0 0.00 0.00 0.00 51 1014.6